This demonstration page uses our WeatherBlox Daily Observations layout. Learn more.

Left ArrowRight Arrow

Hourly Observations for December 14, 2015

Temp ( °F °C ) Dew Point ( °F °C ) Humidity (%) Winds ( mph kmh ) Pressure ( in mb ) Visibility ( mi km ) Precip ( " mm )
12:51 am 00:51 Clear 33 0.6 29 -1.7 85 85 N N/A 29.90 1013 10 16 N/A
1:51 am 01:51 Clear 30 -1.1 28 -2.2 92 92 NNE 3 6 29.89 1012 10 16 N/A
2:51 am 02:51 Clear 32 undefined 29 -1.7 88 88 SSE 7 11 29.87 1012 10 16 N/A
3:51 am 03:51 Clear 30 -1.1 27 -2.8 88 88 N N/A 29.85 1011 10 16 N/A
4:51 am 04:51 Clear 30 -1.1 27 -2.8 88 88 ESE 6 9 29.83 1010 10 16 N/A
5:51 am 05:51 Clear 36 2.2 28 -2.2 73 73 E 12 19 29.80 1009 10 16 N/A
6:51 am 06:51 Clear 35 1.7 28 -2.2 76 76 ESE 7 11 29.80 1009 10 16 N/A
7:51 am 07:51 Sunny 37 2.8 28 -2.2 70 70 ESE 13 20 29.80 1009 10 16 N/A
8:51 am 08:51 Sunny 43 6.1 28 -2.2 56 56 E 12 19 29.77 1008 10 16 N/A
9:51 am 09:51 Sunny 49 9.4 28 -2.2 44 44 E 10 17 29.75 1007 10 16 N/A
10:51 am 10:51 Mostly Cloudy 54 12.2 24 -4.4 31 31 SE 14 22 29.72 1006 10 16 N/A
11:51 am 11:51 Cloudy 58 14.4 25 -3.9 28 28 S 26 43 29.63 1004 10 16 N/A
12:37 pm 12:37 Cloudy 49 9.4 30 -1.1 48 48 NW 22 35 29.65 1004 10 16 N/A
12:51 pm 12:51 Cloudy 47 8.3 31 -0.6 54 54 NW 22 35 29.66 1005 10 16 N/A
1:51 pm 13:51 Cloudy with Light Rain 42 5.6 36 2.2 79 79 NW 26 43 29.72 1006 10 16 N/A
2:51 pm 14:51 Cloudy with Light Rain 40 4.4 36 2.2 86 86 NW 22 35 29.72 1006 10 16 N/A
3:51 pm 15:51 Cloudy with Light Rain 41 5 33 0.6 73 73 NW 23 37 29.72 1006 10 16 N/A
4:51 pm 16:51 Cloudy with Light Rain 39 3.9 33 0.6 79 79 WNW 21 33 29.76 1008 10 16 N/A
5:51 pm 17:51 Cloudy 40 4.4 33 0.6 77 77 NW 9 15 29.76 1008 10 16 N/A
6:51 pm 18:51 Mostly Cloudy 40 4.4 31 -0.6 70 70 NW 17 28 29.78 1009 10 16 N/A
7:51 pm 19:51 Clear 38 3.3 31 -0.6 76 76 NW 9 15 29.80 1009 10 16 N/A
8:51 pm 20:51 Partly Cloudy 37 2.8 29 -1.7 73 73 NW 10 17 29.81 1009 10 16 N/A
9:51 pm 21:51 Clear 35 1.7 28 -2.2 76 76 NW 7 11 29.80 1009 10 16 N/A
10:51 pm 22:51 Cloudy 35 1.7 30 -1.1 82 82 N N/A 29.80 1009 10 16 N/A
11:51 pm 23:51 Cloudy 34 1.1 31 -0.6 89 89 ESE 5 7 29.80 1009 10 16 N/A

Powered by AerisWeather